Date,TemperatureHighF,TemperatureAvgF,TemperatureLowF,DewpointHighF,DewpointAvgF,DewpointLowF,HumidityHigh,HumidityAvg,HumidityLow,PressureMaxIn,PressureMinIn,WindSpeedMaxMPH,WindSpeedAvgMPH,GustSpeedMaxMPH,PrecipitationSumIn
2013-1-1,57,52,49,45,44,43,84,73,60,30.08,30.00,8,2,17,0.00
2013-1-2,58,51,46,48,46,42,89,82,64,30.25,30.08,3,1,6,0.00
2013-1-3,58,52,47,50,46,42,90,80,64,30.34,30.25,4,1,8,0.00
2013-1-4,58,52,46,44,39,33,77,63,39,30.28,30.00,6,1,13,0.00
2013-1-5,57,51,47,39,35,29,70,54,34,29.99,29.72,8,2,18,0.00
2013-1-6,52,48,43,40,35,29,74,61,51,29.84,29.64,16,6,31,0.00
2013-1-7,54,46,40,30,26,15,57,45,28,29.92,29.78,14,5,32,0.00
2013-1-8,45,39,36,32,26,14,80,60,28,30.14,29.92,15,6,36,0.02
2013-1-9,46,40,35,29,24,19,62,52,42,30.17,30.09,4,2,14,0.00
2013-1-10,52,45,37,37,29,21,69,55,37,30.11,29.96,5,2,13,0.00
2013-1-11,60,55,47,52,48,37,89,78,66,29.95,29.74,9,2,24,0.07
2013-1-12,59,53,47,48,44,40,88,73,52,29.97,29.74,10,2,21,0.00
2013-1-13,57,51,44,43,41,38,83,69,49,30.15,29.97,6,1,11,0.00
2013-1-14,59,54,48,47,44,42,82,71,61,30.21,30.14,10,3,20,0.00
2013-1-15,61,57,52,53,49,46,83,75,64,30.19,29.96,11,5,25,0.03
2013-1-16,61,57,52,53,48,41,90,74,53,29.95,29.60,15,8,33,0.93
2013-1-17,60,57,52,52,45,39,76,64,54,29.71,29.58,11,5,29,0.00
2013-1-18,59,55,49,51,46,35,86,70,48,29.58,29.39,17,8,35,0.17
2013-1-19,56,52,48,40,38,36,69,59,48,29.80,29.47,12,5,24,0.00
2013-1-20,63,56,49,54,46,40,81,71,56,29.88,29.78,7,2,14,0.00
2013-1-21,64,60,55,55,51,44,86,73,51,29.85,29.59,12,6,26,0.00
2013-1-22,62,58,53,52,47,42,80,68,50,29.73,29.60,8,2,19,0.00
2013-1-23,60,57,53,46,42,38,73,59,45,29.89,29.73,11,3,21,0.00
2013-1-24,63,56,49,54,48,43,85,75,60,29.88,29.52,15,5,32,0.51
2013-1-25,59,53,48,50,46,41,87,76,56,29.58,29.42,17,3,35,0.51
2013-1-26,57,52,48,48,45,40,87,75,61,29.59,29.37,8,2,18,0.45
2013-1-27,53,49,47,44,41,39,87,73,61,29.87,29.60,9,2,19,0.02
2013-1-28,55,50,47,42,40,37,81,68,56,29.92,29.83,8,2,19,0.00
2013-1-29,52,49,47,40,38,35,78,66,56,30.03,29.92,11,4,22,0.00
2013-1-30,55,49,43,41,35,26,78,60,35,30.02,29.88,5,2,11,0.00
2013-1-31,58,53,45,45,37,24,69,55,30,29.92,29.76,13,3,35,0.00